Location: Bernadets
(43.3537°N, 0.3167°E)
Time: 02:25:11
(UTC+00:00)

Okean-O - Pass Details

Date: 24 October 2021
Orbit: 638 x 640 km, 98.2° (Epoch: 29 November)

Event Time Altitude Azimuth Distance (km) Brightness Sun altitude
Exits shadow 19:40:22 46° 286° (WNW) 865 3.6 -29.5°
Drops below altitude 10° 19:44:06 10° 336° (NNW) 2,041 5.6 -30.1°
Sets 19:46:23 0° 342° (NNW) 2,955 6.4 -30.5°
